Location: Newark
(19.5361°N, 155.5761°W)
Time: 01:42:32
(UTC+00:00)

XW-2C - Visible Passes

Search period start: 03 April 2020 00:00
Search period end: 13 April 2020 00:00
Orbit: 509 x 527 km, 97.5° (Epoch: 02 April)

Date Brightness Start Highest point End Pass type
(mag) Time Alt. Az. Time Alt. Az. Time Alt. Az.
05 Apr ? 15:41:05 10° NE 15:44:30 32° E 15:47:54 10° SSE visible
06 Apr ? 15:27:30 10° NE 15:30:21 20° E 15:33:10 10° SSE visible
07 Apr ? 15:14:31 10° ENE 15:16:10 12° E 15:17:49 10° ESE visible
12 Apr ? 15:36:19 10° NE 15:39:33 27° E 15:42:46 10° SSE visible
